Starlink 3672

operational
NORAD ID: 51974 Int'l Des: 2022-025 Owner: SPXS Country: US Constellation: starlink
LEOCIRCULARSTARLINK_TYPE

About Starlink 3672

Description loading...

Live Position

Loading 3D Globe...

Upcoming Passes

Altitude History

Altitude vs Time

uPlot chart will show altitude changes over time

Two-Line Element Set

1 51974U 22025U 25351.14763084 .00006174 00000-0 43289-3 0 9993
2 51974 53.0540 41.4302 0001525 88.3611 271.7553 15.06412858208470
Epoch: Dec 17, 2025 • Age: 9 hours

Current Status

Altitude 566.7 km
Velocity 7.58 km/s
Sub-Earth Point -53.20°S, 34.23°E
Launch Date Mar 9, 2022
Age 3.7 years
Type internet

Technical Details

Classification Payload
Mass 297.00 kg
Dry Mass 275.00 kg
Total Mass 297.00 kg
Length 0.20 m
Diameter 2.80 m
Span 9.00 m
Shape Box + pan
Manufacturer SPXS
Bus Type Starlink
Phase Status In Orbit
Owner/State SPXS/US

Large Constellations

Loading constellations...